This demonstration page uses our WeatherBlox Daily Observations layout. Learn more.

Left ArrowRight Arrow

Hourly Observations for August 19, 2015

Temp ( °F °C ) Dew Point ( °F °C ) Humidity (%) Winds ( mph kmh ) Pressure ( in mb ) Visibility ( mi km ) Precip ( " mm )
12:53 am 00:53 Clear 69 20.6 68 20 96 96 N N/A 29.87 1012 10 16 N/A
1:53 am 01:53 Clear 68 20 67 19.4 96 96 N N/A 29.86 1011 10 16 N/A
2:53 am 02:53 Clear 68 20 66 18.9 93 93 N N/A 29.85 1011 10 16 N/A
3:53 am 03:53 Clear 67 19.4 65 18.3 93 93 N N/A 29.84 1011 9 14 N/A
4:53 am 04:53 Clear with Mist and Fog 67 19.4 65 18.3 93 93 N N/A 29.84 1011 5 8 N/A
5:53 am 05:53 Clear 68 20 66 18.9 93 93 N N/A 29.84 1011 10 16 N/A
6:53 am 06:53 Clear 70 21.1 68 20 93 93 N N/A 29.84 1010 10 16 N/A
7:53 am 07:53 Sunny 73 22.8 70 21.1 90 90 N N/A 29.85 1011 10 16 N/A
8:53 am 08:53 Sunny 76 24.4 71 21.7 85 85 VRB 3 6 29.85 1011 10 16 N/A
9:53 am 09:53 Mostly Cloudy 77 25 72 22.2 85 85 VRB 7 11 29.85 1011 9 14 N/A
10:01 am 10:01 Mostly Cloudy with Light Rain 76 24.4 72 22.2 88 88 S 8 13 29.88 1012 3 4 0.03 0.76
10:16 am 10:16 Mostly Cloudy with Light Rain 75 23.9 73 22.8 94 94 S 6 9 29.85 1011 7 11 0.03 0.76
10:51 am 10:51 Mostly Cloudy 77 25 73 23 89 89 SSW 8 13 29.88 1012 10 16 0.03 0.76
10:53 am 10:53 Mostly Cloudy 77 25 73 22.8 88 88 VRB 6 9 29.86 1011 10 16 0.03 0.76
11:27 am 11:27 Partly Cloudy 78 25.6 72 22.2 82 82 VRB 7 11 29.83 1010 10 16 N/A
11:53 am 11:53 Mostly Sunny 79 26.1 72 22.2 79 79 VRB 5 7 29.84 1011 10 16 N/A
12:53 pm 12:53 Sunny 81 27.2 71 21.7 72 72 SSW 8 13 29.83 1010 10 16 N/A
1:53 pm 13:53 Mostly Sunny 82 27.8 71 21.7 69 69 VRB 5 7 29.84 1010 10 16 N/A
2:53 pm 14:53 Mostly Cloudy 83 28.3 71 21.7 67 67 SSW 12 19 29.83 1010 10 16 N/A
3:53 pm 15:53 Mostly Cloudy 84 28.9 72 22.2 67 67 WSW 8 13 29.80 1009 10 16 N/A
4:53 pm 16:53 Mostly Sunny 85 29.4 71 21.7 63 63 VRB 7 11 29.78 1009 10 16 N/A
5:32 pm 17:32 Mostly Cloudy with Rain 79 26.1 73 22.8 82 82 VRB 6 9 29.77 1008 2 3 0.03 0.76
5:42 pm 17:42 Cloudy with Light Rain 77 25 74 23.3 90 90 N N/A 29.77 1008 4 6 0.04 1.02
5:53 pm 17:53 Cloudy with Light Rain 77 25 74 23.3 90 90 N N/A 29.78 1009 7 11 0.04 1.02
6:53 pm 18:53 Cloudy with Nearby Thunderstorms 76 24.4 73 22.8 91 91 WSW 6 9 29.79 1009 5 8 0.03 0.76
7:29 pm 19:29 Mostly Cloudy with Light Rain 72 22.2 69 20.6 91 91 SSW 5 7 29.80 1009 4 6 0.04 1.02
7:53 pm 19:53 Mostly Cloudy with Light Rain 71 21.7 69 20.6 94 94 N N/A 29.79 1009 10 16 0.04 1.02
8:53 pm 20:53 Partly Cloudy 71 21.7 69 20.6 94 94 N N/A 29.79 1009 10 16 0.02 0.51
9:53 pm 21:53 Clear 72 22.2 71 21.7 97 97 SSE 3 6 29.80 1009 10 16 N/A
10:53 pm 22:53 Mostly Cloudy with Mist and Fog 72 22.2 70 21.1 94 94 SSW 3 6 29.80 1009 6 10 N/A
11:13 pm 23:13 Mostly Cloudy 72 22.2 71 21.7 97 97 VRB 6 9 29.83 1010 8 13 N/A
11:29 pm 23:29 Mostly Cloudy 72 22.2 70 21.1 94 94 VRB 3 6 29.83 1010 9 14 N/A
11:53 pm 23:53 Mostly Clear 72 22.2 70 21.1 94 94 VRB 3 6 29.80 1009 10 16 N/A

Powered by AerisWeather